Date,TemperatureHighF,TemperatureAvgF,TemperatureLowF,DewpointHighF,DewpointAvgF,DewpointLowF,HumidityHigh,HumidityAvg,HumidityLow,PressureMaxIn,PressureMinIn,WindSpeedMaxMPH,WindSpeedAvgMPH,GustSpeedMaxMPH,PrecipitationSumIn
2014-1-1,49.8,33.4,21.5,31.2,22.5,16.7,84,65,44,30.11,29.86,17,4,17,0.00
2014-1-2,34.5,30.2,18.8,30.2,24.3,14.0,89,78,63,29.87,29.44,17,4,17,0.12
2014-1-3,18.8,11.5,7.1,14.3,3.8,0.3,83,71,60,30.11,29.60,22,8,22,0.00
2014-1-4,38.4,23.1,8.2,19.3,11.1,2.5,79,61,43,30.11,29.97,21,7,21,0.00
2014-1-5,45.6,35.6,24.6,42.8,31.0,14.9,90,83,66,29.98,29.44,15,3,15,0.00
2014-1-6,48.7,20.3,-4.3,44.7,13.8,-12.9,87,75,62,29.83,29.36,20,6,20,0.16
2014-1-7,11.1,1.2,-7.7,-2.9,-8.6,-15.2,72,63,49,30.09,29.83,27,9,27,0.00
2014-1-8,30.7,17.9,4.1,14.7,6.9,-3.4,74,62,51,30.21,30.07,23,10,23,0.00
2014-1-9,48.7,33.6,22.2,25.3,18.4,12.8,70,54,38,30.28,30.17,17,4,17,0.00
2014-1-10,44.9,38.6,32.7,42.2,33.5,19.0,91,82,52,30.18,29.85,7,1,7,0.24
2014-1-11,53.4,47.4,37.5,50.8,44.2,30.6,91,89,75,29.85,29.36,16,3,16,0.39
2014-1-12,46.2,38.1,33.0,32.9,29.2,25.3,80,71,55,29.92,29.56,14,4,14,0.00
2014-1-13,49.2,39.2,30.2,36.6,30.0,24.2,83,70,53,29.89,29.68,8,2,8,0.04
2014-1-14,43.7,39.2,31.2,38.9,34.1,26.1,90,82,65,29.74,29.59,12,2,12,0.10
2014-1-15,32.5,30.1,23.5,28.9,25.8,16.4,88,84,75,29.77,29.69,12,3,12,0.06
2014-1-16,33.9,25.5,17.4,21.9,17.2,11.8,79,71,59,29.77,29.64,18,5,18,0.02
2014-1-17,44.0,32.4,0.0,30.7,23.3,15.5,85,70,42,29.70,29.58,13,4,13,1.02
2014-1-18,22.2,17.8,11.3,15.4,9.6,4.1,78,70,62,29.74,29.66,18,6,18,0.02
2014-1-19,34.7,27.9,19.0,26.1,21.6,13.3,84,77,64,29.68,29.60,16,6,16,0.02
2014-1-20,47.8,37.5,30.9,29.0,24.1,20.4,71,59,44,29.67,29.56,13,4,13,0.00
2014-1-21,32.9,26.3,11.1,28.7,21.1,5.3,87,81,71,29.65,29.41,18,5,18,0.02
2014-1-22,15.2,8.2,0.6,5.6,-1.1,-6.0,78,66,53,29.77,29.63,23,8,23,0.02
2014-1-23,13.6,8.7,0.1,7.5,0.2,-7.2,83,68,54,30.13,29.76,22,9,22,0.00
2014-1-24,11.6,0.9,-3.4,99.9,-5.8,-27.7,100,72,59,30.20,29.75,25,13,23,1.10
2014-1-25,24.0,18.3,6.4,19.9,10.3,-4.5,88,71,45,29.75,29.31,24,8,0,0.00
2014-1-26,33.8,20.6,9.8,24.0,7.9,-0.2,68,58,44,29.62,29.51,22,6,0,0.04
2014-1-27,39.0,25.3,6.6,30.8,14.3,-30.9,77,63,26,29.92,29.53,20,4,0,0.00
2014-1-28,13.8,7.1,1.9,3.6,-3.1,-16.5,77,62,50,30.02,29.88,25,12,0,0.00
2014-1-29,18.1,7.9,-2.3,1.7,-5.1,-10.6,76,56,39,30.02,29.88,23,11,0,0.00
2014-1-30,33.2,15.8,0.1,8.9,0.0,-9.3,67,50,26,30.05,29.87,24,10,0,0.00
2014-1-31,42.0,26.9,20.4,15.7,9.5,5.5,55,48,33,29.94,29.86,17,6,0,0.00
2014-2-1,56.4,48.4,35.8,99.9,26.1,21.3,100,41,33,29.97,29.84,6,4,6,0.00
2014-2-2,48.7,42.4,35.9,42.5,32.7,14.4,89,69,50,29.88,29.80,6,3,6,0.14
2014-2-3,42.4,36.5,29.6,39.7,33.2,25.9,90,88,81,30.05,29.68,13,3,13,1.37
2014-2-4,34.8,32.2,29.6,32.2,29.4,26.5,91,89,88,30.09,29.81,11,3,11,0.12
2014-2-5,45.5,33.2,21.9,40.8,29.3,17.8,91,86,73,29.92,29.58,18,5,18,0.08
2014-2-6,28.5,22.6,19.2,20.9,16.9,13.8,86,78,71,30.07,29.91,17,5,17,0.00
2014-2-7,32.9,23.9,0.0,99.9,18.4,14.6,100,78,61,30.07,30.00,16,6,16,2.85
2014-2-8,32.7,27.3,20.3,28.4,22.9,14.8,87,83,79,30.04,29.88,24,4,0,0.02
2014-2-9,34.7,31.8,26.7,31.7,28.3,23.0,90,87,82,29.91,29.74,11,3,0,0.02
2014-2-10,27.6,22.9,15.6,23.1,15.6,9.6,86,74,57,30.01,29.83,21,5,0,0.00
2014-2-11,33.2,20.7,0.0,16.5,9.9,5.8,84,64,36,30.09,29.98,22,8,0,2.89
2014-2-12,25.5,19.7,15.8,16.6,11.5,7.3,85,70,58,30.08,29.74,20,8,0,0.00
2014-2-13,32.0,26.6,0.0,99.9,23.9,16.6,100,84,76,29.74,29.33,16,5,13,2.93
2014-2-14,43.8,34.1,24.4,27.2,22.3,16.9,78,63,41,29.55,29.42,14,4,14,0.27
2014-2-15,34.3,25.6,0.0,29.8,19.8,-7.4,88,79,68,29.80,29.37,19,5,11,3.20
2014-2-16,29.8,20.6,0.0,24.7,15.6,-0.0,100,79,72,29.95,29.75,20,7,13,3.20
2014-2-17,39.3,25.9,0.0,23.7,17.7,-1.5,83,70,50,30.08,0.00,28,6,0,3.26
2014-2-18,50.1,37.7,26.4,29.3,23.4,20.2,89,60,32,29.94,29.80,12,4,0,0.10
2014-2-19,54.5,42.9,34.7,44.5,30.8,20.3,88,64,46,29.93,29.67,28,4,0,0.20
2014-2-20,49.8,42.6,34.1,45.0,32.3,24.2,87,67,49,29.98,29.71,6,2,0,0.00
2014-2-21,56.3,48.0,38.4,50.3,36.1,20.9,90,66,34,29.85,29.56,57,4,57,3.98
2014-2-22,55.2,43.8,32.7,25.8,21.1,18.2,58,42,27,29.95,29.84,57,3,57,3.98
2014-2-23,59.9,45.9,36.3,31.5,25.7,10.2,76,46,30,29.86,29.71,57,3,57,3.98
2014-2-24,38.1,30.6,24.6,31.7,16.4,-22.7,80,58,37,29.92,29.79,57,6,57,3.98
2014-2-25,58.1,29.6,24.4,54.9,18.3,-10.6,89,65,56,29.86,29.48,18,4,18,3.98
2014-2-26,27.3,22.9,17.2,17.6,12.5,5.5,82,65,47,29.75,29.60,24,5,24,3.98
2014-2-27,58.1,26.2,15.6,54.9,8.7,-31.3,89,48,39,29.79,29.48,21,9,21,3.98
2014-2-28,58.1,24.4,8.4,54.9,7.4,-1.6,89,49,31,29.99,29.48,25,6,25,3.98
2014-3-1,58.1,32.3,20.6,28.9,18.6,8.2,64,57,28,30.05,29.48,24,3,24,0.00
2014-3-2,49.2,43.4,35.6,44.6,36.9,25.3,90,78,64,29.95,29.71,8,0,8,0.43
2014-3-3,58.1,26.3,12.5,54.9,22.6,7.5,90,86,78,30.01,29.48,27,4,27,0.59
2014-3-4,58.1,29.6,14.7,54.9,16.9,9.1,89,60,45,30.02,29.48,16,2,16,0.59
2014-3-5,46.0,31.3,20.8,28.0,20.8,15.2,81,66,42,29.97,29.90,21,4,21,0.59
2014-3-6,58.1,32.4,29.3,54.9,20.8,18.7,89,62,54,30.02,29.48,7,1,7,0.00
2014-3-7,58.1,38.2,28.2,54.9,31.1,21.1,89,76,66,29.95,29.48,6,0,6,5.04
2014-3-8,56.3,41.2,31.8,40.3,32.8,28.1,88,74,41,29.85,29.76,10,1,10,0.00
2014-3-9,58.1,40.4,36.3,54.9,28.0,25.7,89,61,56,29.92,29.48,9,2,9,5.04
2014-3-10,62.2,47.2,35.7,54.9,28.4,25.1,89,51,28,29.84,29.48,13,3,13,5.04
2014-3-11,65.6,54.8,47.1,41.9,37.2,31.5,66,52,38,29.66,29.55,11,2,11,0.00
2014-3-12,58.1,42.9,31.6,54.9,37.0,25.5,89,79,75,29.48,29.18,21,5,21,0.22
2014-3-13,28.0,21.1,12.9,19.4,9.4,4.3,83,61,42,29.94,29.48,23,6,23,0.22
2014-3-14,56.1,38.4,22.1,31.8,19.8,10.2,67,49,33,29.98,29.75,18,5,18,0.22
2014-3-15,55.7,49.7,42.0,35.6,29.9,23.2,63,47,30,29.89,29.72,18,4,18,0.22
2014-3-16,44.4,37.5,30.5,30.9,27.1,22.5,87,67,48,29.89,29.68,8,0,8,0.22
2014-3-17,58.1,28.2,25.5,54.9,23.8,21.6,89,83,78,29.76,29.48,18,1,18,0.06
2014-3-18,41.7,32.7,26.9,35.2,28.4,23.2,88,84,77,29.91,29.74,11,1,11,0.24
2014-3-19,61.5,45.7,33.6,54.9,38.0,30.4,90,76,51,29.93,29.48,15,2,15,5.65
2014-3-20,58.1,43.1,37.2,54.9,27.6,0.0,89,56,34,29.85,29.48,17,4,17,5.65
2014-3-21,61.8,47.6,-21.4,54.9,26.3,-32.1,89,46,26,29.90,29.48,14,2,14,5.65
2014-3-22,61.7,52.4,44.2,36.1,26.4,17.6,47,37,20,29.85,29.74,14,2,14,0.00
2014-3-23,58.1,37.0,26.2,54.9,25.9,12.1,89,65,45,29.96,29.48,16,2,16,5.65
2014-3-24,38.4,27.7,16.8,14.7,10.2,6.5,69,50,28,30.00,29.84,24,4,24,0.00
2014-3-25,119.8,29.1,22.4,27.5,20.5,13.2,84,71,46,29.85,29.59,22,1,22,0.15
2014-3-26,58.1,22.3,16.3,54.9,11.8,7.5,89,65,46,30.05,29.48,22,6,22,0.04
2014-3-27,58.1,35.5,19.0,54.9,18.1,8.6,89,51,31,30.10,29.48,22,4,22,5.83
2014-3-28,59.3,49.1,40.6,50.7,39.5,22.9,88,71,44,29.94,29.85,7,0,7,0.17
2014-3-29,54.3,49.2,36.5,51.4,45.9,33.3,90,88,82,29.92,29.44,16,1,16,0.47
2014-3-30,43.5,34.7,30.0,33.9,27.9,23.8,89,77,57,29.87,29.57,17,6,17,0.06
2014-3-31,61.8,46.0,32.1,29.3,25.0,20.0,63,46,27,30.00,29.86,9,2,9,0.00
2014-4-1,73.0,55.1,39.9,42.5,32.6,25.7,65,45,23,29.99,29.83,14,2,14,0.00
2014-4-2,73.9,60.8,45.1,46.6,39.4,8.5,64,46,19,29.95,29.87,13,1,13,0.02
2014-4-3,70.5,59.4,51.4,52.9,48.5,45.1,87,68,49,29.94,29.73,8,1,8,0.29
2014-4-4,65.4,58.3,52.3,58.4,52.9,45.3,90,83,65,29.79,29.57,14,2,14,0.20
2014-4-5,53.4,42.3,34.7,45.3,31.4,24.7,76,65,50,29.96,29.68,16,4,16,0.00
2014-4-6,61.3,44.1,29.1,37.9,30.1,23.0,80,60,41,30.00,29.87,10,2,10,0.00
2014-4-7,58.1,47.5,41.9,54.9,40.5,30.9,89,78,51,29.90,29.42,8,1,8,7.51
2014-4-8,58.1,48.3,39.5,54.9,40.0,32.1,89,73,60,29.61,29.40,18,3,18,7.51
2014-4-9,53.2,43.6,35.2,40.2,34.1,29.5,84,70,52,29.92,29.59,16,2,16,0.00
2014-4-10,68.3,51.7,34.1,38.9,32.7,25.9,75,51,28,30.03,29.88,12,1,12,0.00
2014-4-11,71.7,59.1,49.8,48.0,41.2,-35.8,77,53,38,29.98,29.84,15,2,15,0.00
2014-4-12,73.0,60.9,48.3,54.9,48.8,43.9,89,66,46,30.08,29.48,10,1,10,0.00
2014-4-13,80.4,65.9,52.5,52.4,47.8,43.3,71,54,29,30.01,29.86,13,1,13,0.00
2014-4-14,69.6,62.9,57.5,54.4,52.2,50.7,88,69,54,29.87,29.65,15,3,15,0.10
2014-4-15,57.9,43.0,26.2,54.5,38.6,18.1,90,84,71,29.89,29.49,20,3,20,0.37
2014-4-16,30.9,24.6,21.5,21.2,16.7,-11.9,74,72,66,30.14,29.89,25,5,25,0.00
2014-4-17,58.6,46.9,29.6,54.9,25.9,16.5,89,44,34,30.30,29.48,10,1,10,0.00
2014-4-18,61.1,48.7,36.3,38.0,31.9,22.8,72,53,40,30.24,30.03,8,0,8,0.00
2014-4-19,67.2,55.4,44.7,41.2,37.7,34.0,70,52,37,30.09,30.00,9,0,9,0.00
2014-4-20,58.1,49.1,44.4,54.9,32.0,25.2,89,53,31,30.13,29.48,5,0,5,7.98
2014-4-21,75.7,58.4,40.6,41.1,34.3,25.3,65,42,26,30.05,29.76,12,0,12,0.00
2014-4-22,66.9,61.9,53.4,54.9,46.1,32.6,89,57,37,29.76,29.48,15,4,15,0.00
2014-4-23,58.1,47.4,42.4,54.9,30.6,28.3,89,52,43,29.87,29.48,57,2,57,0.00
2014-4-24,65.8,50.1,35.7,35.7,29.4,23.5,74,49,21,29.95,29.80,10,0,10,0.00
2014-4-25,59.7,53.7,49.6,55.8,41.7,32.1,89,65,41,29.80,29.48,23,1,23,8.75
2014-4-26,70.8,57.9,42.0,47.1,41.0,0.0,86,57,34,29.81,29.75,18,3,18,0.40
2014-4-27,77.0,64.4,49.2,54.9,41.9,38.2,89,46,28,29.89,29.48,10,1,10,8.75
2014-4-28,63.5,54.4,48.5,54.9,44.6,41.1,89,71,54,29.87,29.48,10,0,10,9.34
2014-4-29,58.1,49.4,48.3,54.9,46.6,45.2,91,90,89,29.89,29.48,8,0,8,9.71
2014-4-30,69.4,58.3,49.2,60.5,53.7,46.7,91,85,69,29.89,29.68,12,1,12,0.36
2014-5-1,63.3,56.9,51.4,54.9,47.1,36.6,91,72,45,29.78,29.48,15,2,15,0.02
2014-5-2,60.6,55.6,47.1,54.9,36.6,33.9,89,49,41,29.76,29.48,14,3,14,0.00
2014-5-3,63.3,53.4,42.0,41.1,38.1,17.1,76,57,43,29.79,29.68,15,3,15,0.00
2014-5-4,69.2,56.4,46.9,54.9,39.7,32.9,89,54,41,29.83,29.48,20,2,20,0.00
2014-5-5,67.2,54.6,44.7,56.0,45.1,34.6,85,70,60,29.90,29.72,12,0,12,0.18
2014-5-6,73.5,61.9,49.1,57.1,50.4,45.4,89,68,46,29.87,29.72,10,1,10,0.00
2014-5-7,77.5,63.6,56.4,58.7,53.1,48.5,89,69,48,30.01,29.48,10,1,10,0.00
2014-5-8,82.0,77.3,58.1,54.9,50.1,46.0,89,39,31,30.01,29.48,12,2,12,0.00
2014-5-9,79.3,67.1,57.9,58.3,51.7,44.0,84,59,38,30.01,29.86,12,1,12,0.02
2014-5-10,67.8,61.1,56.8,59.4,56.3,53.6,89,84,73,29.95,29.88,17,1,17,0.43
2014-5-11,78.0,65.2,52.7,59.8,52.5,-23.0,91,68,37,30.03,29.92,9,1,9,0.00
2014-5-12,80.6,66.9,57.0,66.8,57.5,48.6,85,72,58,30.07,29.98,10,0,10,0.12
2014-5-13,84.3,72.4,58.1,63.4,60.9,54.9,89,68,48,30.03,29.48,5,0,5,0.12
2014-5-14,80.6,69.5,58.1,68.2,61.7,54.9,89,77,59,30.03,29.48,13,1,13,0.39
2014-5-15,66.5,59.5,48.2,62.0,56.1,45.2,90,89,82,29.94,29.48,14,1,14,12.83
2014-5-16,59.9,47.7,42.9,54.9,41.8,39.1,91,81,50,29.90,29.48,11,1,11,0.06
2014-5-17,58.1,46.7,37.9,54.9,37.3,35.0,91,72,46,30.04,29.48,15,2,15,0.02
2014-5-18,62.4,49.5,36.6,41.8,37.2,32.8,88,65,40,30.08,30.00,11,1,11,0.02
2014-5-19,66.2,53.4,39.2,54.9,38.2,32.2,89,58,39,30.15,29.48,8,0,8,0.02
2014-5-20,71.7,59.1,46.5,56.2,48.5,39.4,85,69,51,30.09,29.92,82,1,82,0.00
2014-5-21,71.2,61.6,58.1,60.9,55.2,52.6,89,80,68,29.94,29.48,0,0,6,0.28
2014-5-22,66.7,63.7,58.1,58.9,54.4,52.3,89,72,66,29.88,29.48,8,0,8,13.36
2014-5-23,70.7,61.5,53.4,54.9,48.4,44.8,89,64,44,29.95,29.48,54,2,54,13.36
2014-5-24,71.7,58.2,44.6,52.4,46.3,39.5,85,66,46,30.05,29.95,10,1,10,0.00
2014-5-25,75.9,61.8,47.1,55.7,48.5,42.5,86,64,37,30.07,29.98,9,0,9,0.00
2014-5-26,79.8,65.7,51.0,60.6,53.7,46.2,86,67,47,30.06,29.94,72,1,72,0.00
2014-5-27,79.3,67.9,59.5,67.1,60.3,53.3,86,77,62,29.98,29.86,11,1,11,13.89
2014-5-28,79.7,67.7,58.2,65.7,60.0,54.7,89,77,59,29.95,29.86,9,0,9,13.89
2014-5-29,77.0,66.0,59.9,65.4,59.6,55.2,87,80,65,29.98,29.90,10,0,10,13.89
2014-5-30,67.4,61.0,59.0,63.2,57.7,-16.3,90,89,86,29.99,29.94,6,0,6,0.00
2014-5-31,79.5,72.9,64.9,58.9,55.8,53.7,69,56,44,30.09,29.98,7,1,7,0.00
2014-6-1,75.7,67.3,59.0,61.1,55.8,51.6,77,67,57,30.12,30.06,8,0,8,13.89
2014-6-2,78.8,65.8,53.9,64.4,57.0,49.5,87,74,60,30.13,29.96,8,0,8,0.00
2014-6-3,76.8,67.1,61.1,65.1,60.2,55.9,89,79,63,29.98,29.85,8,0,8,13.89
2014-6-4,78.0,67.8,62.2,67.6,61.8,58.3,90,81,67,29.86,29.63,9,0,9,0.65
2014-6-5,69.8,64.1,55.0,61.2,57.4,48.9,91,80,60,29.82,29.60,10,1,10,0.92
2014-6-6,75.0,66.2,51.4,58.2,50.5,47.2,86,59,40,29.90,29.80,7,1,7,15.46
2014-6-7,76.8,60.7,50.5,62.9,53.1,45.7,86,76,54,29.96,29.86,7,0,7,15.46
2014-6-8,77.9,67.6,60.6,69.3,62.6,56.4,89,84,73,29.86,29.72,8,0,8,0.96
2014-6-9,75.7,71.4,63.3,62.9,61.3,39.0,89,71,62,29.82,29.78,8,0,8,0.00
2014-6-10,81.1,70.5,61.7,67.4,62.5,58.1,89,77,57,29.93,29.80,9,1,9,16.69
2014-6-11,81.5,69.6,59.7,68.2,62.3,28.0,90,79,59,29.89,29.74,11,1,11,16.69
2014-6-12,76.6,67.8,62.6,67.4,62.3,59.4,90,83,66,29.83,29.73,8,0,8,0.12
2014-6-13,77.5,67.1,60.4,63.5,60.5,56.5,90,80,60,29.84,29.72,9,1,9,0.12
2014-6-14,61.1,55.9,51.0,57.0,52.2,47.8,90,87,76,29.95,29.84,7,0,7,0.12
2014-6-15,49.6,49.6,49.6,45.9,45.9,45.9,87,87,87,0.00,40.00,0,0,0,0.00
2014-6-16,84.0,77.4,66.7,68.9,63.7,59.8,87,64,47,30.10,30.01,8,0,8,17.03
2014-6-17,67.6,67.4,67.2,60.1,59.9,59.8,77,77,77,30.04,30.04,0,0,0,0.00
2014-6-18,85.8,81.8,75.0,69.1,67.1,65.5,81,62,53,30.03,29.97,9,2,9,0.00
2014-6-19,78.0,71.4,67.2,68.9,66.1,63.5,88,84,72,30.03,29.94,6,0,6,17.19
2014-6-20,81.5,68.9,62.4,70.2,63.8,59.1,90,84,64,29.97,29.86,6,0,6,8.34
2014-6-21,78.0,70.1,64.5,68.3,63.3,61.2,90,80,62,29.86,29.76,11,1,11,8.34
2014-6-22,80.9,70.1,60.2,66.3,62.0,57.0,90,77,58,29.92,29.78,7,0,7,0.00
2014-6-23,68.1,63.6,61.3,63.3,59.8,57.7,89,87,84,29.98,29.90,3,0,3,0.00
2014-6-24,80.4,79.8,79.0,70.2,69.4,67.9,72,71,69,29.96,9.18,8,0,8,0.00
2014-6-25,75.3,69.2,62.4,69.9,64.5,59.1,90,85,76,29.89,9.53,10,0,10,8.34
2014-6-26,80.7,70.4,61.5,67.2,62.9,58.5,91,78,58,29.94,29.87,7,0,7,8.34
2014-6-27,83.8,74.7,67.1,68.2,63.8,0.0,86,70,55,30.05,10.03,6,0,6,8.44
2014-6-28,80.0,70.8,64.7,69.2,64.8,61.1,90,82,67,30.13,30.04,7,0,7,0.12
2014-6-29,73.2,67.4,63.6,67.2,62.8,59.4,89,85,80,30.12,30.01,4,0,4,0.24
2014-6-30,81.8,70.6,61.5,71.4,64.5,58.2,90,82,67,30.02,29.89,9,0,9,8.34
2014-7-1,83.3,79.3,64.4,72.7,70.0,61.4,90,74,66,29.85,29.81,7,0,7,0.31
2014-7-2,84.7,79.4,69.4,72.1,68.3,63.9,83,69,58,29.91,29.84,8,1,8,0.31
2014-7-3,80.4,70.1,62.2,70.4,63.6,54.4,89,80,66,29.95,29.86,10,1,10,0.31
2014-7-4,70.8,63.1,55.2,56.2,52.5,47.2,88,70,51,30.12,29.94,14,1,14,0.31
2014-7-5,75.2,61.9,48.2,54.8,49.8,44.5,88,67,42,30.19,30.06,6,0,6,0.31
2014-7-6,79.5,66.5,52.3,62.7,55.3,47.6,87,69,50,30.08,29.91,8,0,8,8.35
2014-7-7,81.6,69.9,59.5,65.5,59.3,22.5,82,70,13,29.93,29.81,12,1,12,0.00
2014-7-8,81.3,73.2,65.8,67.4,64.3,58.1,88,74,59,29.88,10.56,14,1,14,0.28
2014-7-9,77.0,69.4,65.1,67.0,63.4,61.0,90,82,64,29.93,29.81,11,1,11,0.20
2014-7-10,81.6,69.8,58.8,66.6,60.8,55.6,90,75,51,30.00,29.92,8,0,8,19.52
2014-7-11,80.2,68.1,58.3,65.4,61.5,54.8,89,80,57,30.10,10.92,5,0,5,8.34
2014-7-13,84.9,76.5,65.3,70.1,66.6,61.3,88,72,55,30.02,29.89,8,1,8,8.34
2014-7-14,80.4,75.9,69.0,70.1,67.1,64.0,84,74,67,29.91,29.79,10,1,10,8.34
2014-7-15,70.3,67.0,59.3,65.8,62.6,29.4,90,86,75,29.81,29.72,10,0,10,0.22
2014-7-16,68.5,58.2,51.4,55.5,51.6,47.6,90,80,56,29.89,29.76,8,0,8,11.42
2014-7-17,74.6,61.7,48.0,56.8,51.0,44.6,89,70,46,30.03,29.89,7,0,0,8.34
2014-7-18,73.0,63.2,55.9,61.2,56.1,49.2,89,78,63,30.10,30.02,10,0,0,0.08
2014-7-19,64.4,62.0,60.4,61.4,58.8,57.5,90,89,88,30.07,30.00,5,0,0,0.20
2014-7-20,73.0,65.1,59.7,67.1,61.1,-23.1,91,87,80,30.01,29.96,4,0,0,0.00
2014-7-21,81.6,71.3,64.4,70.1,65.2,61.3,90,82,66,30.07,29.99,6,0,0,0.00
2014-7-22,84.3,72.7,62.9,71.0,65.3,59.6,90,79,62,30.10,29.98,7,0,0,0.00
2014-7-23,84.9,73.3,64.0,72.5,66.5,60.7,89,80,61,30.01,29.84,13,1,0,0.49
2014-7-24,75.5,67.7,59.7,69.5,63.6,56.2,90,87,78,29.91,29.80,8,0,0,8.34
2014-7-25,77.7,66.3,56.8,62.6,58.0,-24.3,90,76,53,29.98,29.89,9,0,0,0.45
2014-7-26,68.7,61.7,57.9,62.5,57.2,54.0,88,85,74,29.94,29.85,5,0,0,8.34
2014-7-27,77.3,69.9,65.3,69.1,64.9,60.1,90,84,72,29.87,29.66,68,0,0,0.38
2014-7-28,70.1,63.9,58.8,65.7,58.2,55.0,90,82,69,29.83,29.65,14,2,0,0.24
2014-7-29,68.9,60.1,53.2,58.1,54.0,48.6,90,81,61,29.94,29.79,10,0,0,0.24
2014-7-30,70.7,58.9,47.8,59.3,52.5,26.6,90,80,64,29.99,29.92,4,0,0,0.24
2014-7-31,77.7,63.5,53.2,62.8,55.7,50.0,90,78,49,30.04,29.97,7,0,0,0.06
2014-8-1,72.5,65.8,59.7,63.7,59.4,55.1,89,80,67,30.06,29.99,6,0,0,0.02
2014-8-2,74.8,65.7,59.7,66.0,60.1,55.2,88,82,71,30.03,29.93,10,0,0,0.15
2014-8-3,75.0,69.1,59.3,63.2,59.5,54.8,89,72,61,30.03,12.74,8,1,4,0.15
2014-8-4,79.3,65.6,53.9,65.6,58.9,50.7,90,80,58,30.05,29.95,6,0,0,0.15
2014-8-5,59.5,59.5,59.5,56.3,56.3,56.3,89,89,89,0.00,40.00,0,0,0,0.00
2014-8-6,78.0,71.9,62.4,66.6,62.9,58.7,89,74,61,29.92,29.85,9,1,0,0.00
2014-8-7,78.6,68.2,59.1,63.8,58.9,55.1,89,74,50,29.96,29.88,9,0,0,0.00
2014-8-8,70.5,66.7,64.4,64.4,62.8,61.2,90,87,80,29.98,12.74,0,0,0,0.17
2014-8-9,68.1,64.6,62.7,64.1,61.2,59.7,90,89,86,30.01,29.94,7,0,0,0.04
2014-8-10,67.2,64.0,62.2,63.5,60.7,59.2,90,89,87,30.03,29.96,7,0,0,0.00
2014-8-11,64.2,63.5,62.7,61.2,60.3,59.4,90,89,88,29.99,29.87,7,0,0,0.55
2014-8-12,79.3,69.2,63.1,70.6,63.9,59.8,89,84,67,29.87,29.69,11,0,0,0.28
2014-8-13,66.0,60.7,54.5,60.4,55.9,50.7,90,84,75,29.91,29.76,11,1,0,0.28
2014-8-14,70.8,59.5,53.2,60.2,54.1,50.0,90,83,67,29.92,29.84,8,0,0,0.00
2014-8-15,73.4,62.8,54.3,61.2,54.3,50.3,90,75,51,29.93,29.87,11,1,0,0.00
2014-8-16,76.4,62.0,49.2,60.7,53.5,45.8,89,75,49,29.95,29.89,10,1,0,0.00
2014-8-17,76.4,67.2,60.4,65.8,60.8,54.4,88,80,66,29.92,29.87,8,0,0,0.00
2014-8-18,70.3,66.3,62.9,66.9,62.9,59.5,90,89,86,29.89,29.70,8,0,0,0.35
2014-8-19,79.1,68.2,64.4,70.2,64.0,60.9,89,87,73,29.81,29.74,6,0,0,0.02
2014-8-20,79.9,79.9,79.9,67.5,67.5,67.5,66,66,66,29.89,29.89,0,0,0,0.00
2014-8-21,79.9,70.2,62.4,69.3,64.9,59.1,89,84,66,30.02,14.07,7,0,0,0.19
2014-8-22,74.8,69.1,65.1,70.7,65.4,61.5,89,88,86,29.97,29.88,6,0,0,0.37
2014-8-23,80.4,71.6,66.9,72.4,66.4,41.7,88,84,72,29.93,29.86,6,0,0,0.02
2014-8-24,71.9,66.3,62.9,65.6,62.1,59.0,88,86,79,30.03,29.92,6,0,0,0.02
2014-8-25,76.1,65.7,58.4,62.9,58.8,55.2,89,79,58,30.07,30.00,5,0,0,0.00
2014-8-26,72.3,72.3,72.3,57.7,57.7,57.7,60,60,60,30.08,30.08,0,0,0,0.00
2014-8-27,81.5,71.2,54.3,69.6,63.4,50.8,89,77,63,30.02,29.89,8,0,0,0.00
2014-8-28,80.7,71.6,62.9,67.3,62.7,56.3,89,75,55,29.99,29.90,10,0,0,0.00
2014-8-29,80.7,73.7,61.7,67.9,63.7,55.8,84,71,61,30.07,29.98,7,0,0,0.00
2014-8-30,84.3,73.3,64.7,70.5,64.9,60.5,88,76,51,30.10,29.99,10,0,0,0.00
2014-8-31,80.4,71.3,66.0,69.3,65.5,62.0,88,82,67,30.04,29.97,11,1,0,0.06
2014-9-1,81.3,74.2,66.3,69.9,66.2,62.6,89,77,60,30.00,29.93,9,1,0,0.12
2014-9-2,83.1,73.2,0.0,70.9,65.6,0.0,100,78,60,29.98,14.88,114,2,114,8.34
2014-9-3,79.5,70.5,64.5,70.0,64.5,61.2,89,82,65,30.04,29.90,5,0,0,0.35
2014-9-4,79.3,68.5,63.5,70.8,64.4,60.2,89,87,75,30.07,30.02,3,0,0,0.02
2014-9-5,82.2,75.2,66.7,71.9,68.3,62.9,89,80,67,30.10,29.98,9,0,0,0.00
2014-9-6,77.7,67.6,64.9,71.1,63.6,61.3,89,87,77,30.01,29.90,5,0,0,0.04
2014-9-7,73.0,65.7,62.2,67.2,61.9,58.0,89,87,82,30.04,29.91,7,0,0,0.10
2014-9-8,66.5,61.4,55.5,61.5,57.0,52.2,90,86,80,30.07,30.01,9,0,0,0.22
2014-9-9,75.0,65.1,57.3,65.6,59.4,26.0,88,82,71,30.06,29.96,5,0,0,0.08
2014-9-10,65.1,62.7,61.1,61.5,59.3,57.5,89,89,88,30.01,29.96,5,0,0,0.08
2014-9-11,74.4,70.4,63.6,68.6,65.7,7.9,89,85,81,29.94,29.85,8,1,0,0.00
2014-9-12,75.3,68.7,64.2,66.6,63.6,60.9,89,84,73,30.00,29.92,6,0,0,0.10
2014-9-13,66.2,60.0,49.2,62.2,55.8,46.1,90,86,75,30.12,29.94,10,0,0,0.29
2014-9-14,58.8,53.0,46.5,54.3,49.6,43.6,90,88,85,30.14,30.05,2,0,0,0.00
2014-9-15,64.9,55.6,50.1,59.3,52.0,47.3,90,88,82,30.07,29.93,1,0,0,59.30
2014-9-16,67.1,60.6,52.3,60.0,55.6,48.9,88,84,74,29.95,29.89,8,0,0,0.00
2014-9-17,68.3,58.0,49.1,57.6,52.1,46.1,90,81,67,29.93,29.82,7,0,0,0.00
2014-9-18,66.3,56.6,52.1,56.2,51.5,48.7,89,83,69,29.97,29.83,4,0,0,0.00
2014-9-19,62.9,58.1,54.6,57.7,53.3,49.5,88,84,79,30.11,29.96,10,0,0,0.00
2014-9-20,75.9,64.9,57.3,62.8,57.6,53.5,89,78,60,30.11,29.90,7,0,0,0.00
2014-9-21,74.3,62.5,52.3,66.6,57.0,49.2,90,82,71,29.94,29.67,13,1,0,0.02
2014-9-22,61.0,53.2,45.3,50.0,46.6,40.8,87,78,64,30.08,29.79,11,1,0,0.00
2014-9-23,66.2,51.5,38.4,53.4,44.8,35.5,90,79,60,30.18,30.07,7,0,0,0.00
2014-9-24,67.1,56.1,45.3,52.1,46.7,40.1,82,71,53,30.25,30.17,10,0,0,0.00
2014-9-25,77.1,63.8,53.0,62.2,56.2,49.2,88,77,58,30.18,30.07,8,0,0,0.00
2014-9-26,75.0,62.7,56.3,62.7,56.8,51.9,89,82,64,30.13,30.04,7,0,0,0.00
2014-9-27,75.9,62.6,54.1,58.0,54.0,49.5,89,75,50,30.12,30.05,8,0,0,0.00
2014-9-28,70.8,59.5,49.6,59.2,53.3,46.5,89,81,66,30.09,29.96,5,0,0,0.00
2014-9-29,73.0,61.5,55.9,62.8,56.3,52.4,90,83,67,29.96,29.82,7,0,0,0.04
2014-9-30,75.0,64.4,54.5,62.8,55.0,51.4,90,73,48,29.84,29.76,8,0,0,0.04
2014-10-1,73.2,59.6,51.9,57.5,51.5,48.5,88,76,52,29.94,3.55,11,0,0,0.00
2014-10-2,77.0,62.3,50.7,60.9,53.3,47.6,90,74,50,30.00,29.91,9,0,0,0.00
2014-10-3,61.7,60.8,59.5,57.3,56.2,53.5,88,85,78,29.93,29.84,7,0,0,0.00
2014-10-4,60.6,60.6,60.6,57.0,57.0,57.0,88,88,88,29.84,29.84,0,0,0,0.00
2014-10-5,55.4,47.0,33.6,36.1,32.7,29.3,85,59,42,29.79,29.71,17,2,0,0.22
2014-10-6,68.3,54.6,39.4,51.5,46.8,34.3,90,76,49,29.86,3.82,16,1,0,0.71
2014-10-7,59.0,52.1,46.2,53.8,48.9,43.4,90,89,82,29.91,29.76,14,0,0,0.55
2014-10-8,64.0,56.3,52.7,51.2,46.7,44.0,90,71,54,29.94,29.79,11,1,0,0.00
2014-10-9,67.6,53.5,42.4,51.5,44.3,38.8,89,73,43,30.02,29.93,9,1,0,0.00
2014-10-10,57.9,54.3,48.9,54.7,50.7,44.5,90,88,81,29.96,29.85,6,0,0,0.31
2014-10-11,62.4,58.3,53.9,58.3,54.7,50.7,90,88,83,29.97,29.78,7,0,0,0.26
2014-10-12,53.9,51.1,49.6,50.7,48.3,46.6,90,90,89,30.07,29.95,7,0,0,0.14
2014-10-13,69.2,57.9,51.6,63.8,54.3,48.8,90,88,75,30.08,29.98,7,0,0,0.08
2014-10-14,70.7,65.2,59.7,62.6,60.3,56.7,90,84,72,29.99,29.69,15,1,0,0.16
2014-10-15,66.7,58.3,52.8,61.6,52.6,48.7,90,82,57,29.74,29.63,11,0,0,0.94
2014-10-16,55.9,51.5,47.1,51.7,47.8,44.0,90,87,81,29.71,29.61,8,1,0,0.92
2014-10-17,69.4,57.4,49.1,53.3,48.8,17.4,89,74,27,29.75,29.61,11,2,0,0.92
2014-10-18,60.0,51.4,42.0,52.1,44.0,37.8,87,76,67,29.81,29.60,14,4,0,0.92
2014-10-19,53.4,43.9,37.2,39.2,35.9,31.3,88,74,54,29.99,29.81,13,2,0,0.92
2014-10-20,57.9,46.1,33.2,44.5,38.6,29.8,89,76,59,29.95,29.79,10,1,0,0.92
2014-10-21,55.0,48.0,42.9,49.6,43.4,38.4,89,84,72,29.84,29.73,13,1,0,0.92
2014-10-22,48.7,44.3,41.5,42.7,39.6,37.5,87,83,77,29.97,29.82,14,2,0,0.92
2014-10-23,49.6,44.2,42.0,42.9,39.5,37.7,87,83,75,29.95,29.89,16,2,0,0.92
2014-10-24,61.3,47.9,38.8,46.7,39.8,34.9,90,75,49,29.92,29.83,9,0,0,0.00
2014-10-25,65.6,49.7,36.1,50.1,40.9,32.6,89,74,45,29.89,29.71,11,1,0,0.00
2014-10-26,62.0,55.2,43.7,52.3,35.2,23.0,83,51,24,29.85,29.68,15,3,0,0.00
2014-10-27,74.1,56.1,40.2,52.9,39.2,22.0,70,54,41,29.97,29.84,9,0,0,0.00
2014-10-28,75.5,63.2,51.4,56.7,49.3,44.6,80,62,41,29.97,29.86,12,1,0,0.00
2014-10-29,63.6,52.8,42.0,50.7,44.9,34.7,88,75,58,29.91,29.83,10,0,0,0.14
2014-10-30,48.5,40.3,33.6,36.3,33.0,28.4,86,76,61,29.92,29.84,9,0,0,0.12
2014-10-31,46.9,37.4,30.3,38.9,33.0,8.3,89,84,38,29.85,29.63,10,0,0,0.20
2014-11-1,42.6,37.8,31.6,36.6,34.1,14.9,90,86,75,29.86,29.61,17,1,14,0.06
2014-11-2,33.8,30.4,29.3,28.1,24.0,21.8,88,77,68,30.06,29.86,15,3,0,0.04
2014-11-3,57.7,49.9,36.1,33.3,27.4,22.5,74,43,31,30.21,30.09,9,0,0,29.84
2014-11-4,66.5,54.4,42.4,31.2,25.8,19.8,41,33,24,30.12,29.99,11,0,0,0.02
2014-11-5,55.9,52.5,48.5,43.0,34.7,23.5,81,53,30,30.08,29.89,8,0,0,0.02
2014-11-6,58.8,47.1,39.3,51.4,42.3,35.2,90,84,53,29.89,29.60,30,2,0,0.55
2014-11-7,40.6,37.0,30.0,36.0,31.2,24.0,88,79,67,29.86,29.69,17,3,0,0.02
2014-11-8,48.7,38.6,26.2,35.2,29.4,22.3,88,70,53,29.85,29.71,17,1,0,0.02
2014-11-9,54.6,45.1,37.9,38.8,33.6,29.1,78,65,48,29.84,29.74,10,1,0,0.02
2014-11-10,66.0,52.6,36.3,42.2,37.9,28.8,75,59,40,30.03,29.84,10,1,0,0.00
2014-11-11,68.5,52.5,37.5,46.5,36.7,32.2,86,59,30,29.90,29.76,8,0,0,0.00
2014-11-12,52.7,43.5,31.1,42.8,33.7,26.5,85,69,49,29.95,29.78,12,1,0,0.00
2014-11-13,34.8,31.6,23.9,30.2,27.2,19.5,87,84,79,29.95,29.84,12,1,0,0.00
2014-11-14,25.7,22.3,19.9,19.5,14.6,12.3,83,72,62,30.06,29.89,19,5,3,0.00
2014-11-15,37.9,28.3,16.3,21.9,16.1,2.9,80,61,45,30.15,30.04,61,4,0,0.00
2014-11-16,37.9,34.2,31.6,32.0,23.5,16.9,88,66,49,30.05,29.76,6,0,0,0.22
2014-11-17,42.9,34.8,20.8,40.2,31.2,14.1,90,87,75,29.77,29.44,26,2,0,0.47
2014-11-18,20.4,15.3,-18.4,14.1,6.8,-26.3,83,69,23,29.99,29.69,54,8,0,0.20
2014-11-19,36.8,24.1,11.3,19.1,11.9,5.0,77,61,45,30.02,29.81,22,5,0,0.00
2014-11-20,41.5,34.4,24.4,26.8,20.5,14.4,68,57,41,29.93,29.76,16,4,0,0.00
2014-11-21,33.6,25.0,19.5,15.4,9.9,6.0,71,54,35,30.22,29.92,21,5,0,0.00
2014-11-22,53.9,34.8,18.8,26.2,16.8,-9.3,67,49,33,30.23,30.02,25,4,0,0.00
2014-11-23,52.7,42.8,33.6,49.5,32.5,18.5,89,67,50,30.03,29.50,22,1,0,0.14
2014-11-24,68.3,58.4,51.9,53.3,46.1,38.8,89,66,41,29.73,29.47,22,3,0,0.00
2014-11-25,52.3,43.3,38.4,38.8,30.7,16.8,77,62,41,29.94,29.73,13,1,0,0.00
2014-11-26,40.1,35.2,33.0,34.4,29.9,26.6,89,82,59,29.92,29.75,9,0,0,0.61
2014-11-27,33.6,29.8,24.6,30.5,25.8,19.2,90,85,75,30.02,29.76,19,2,0,0.08
2014-11-28,29.1,24.5,20.4,20.5,17.3,14.9,84,74,64,30.09,29.98,23,5,0,0.06
2014-11-29,38.4,28.8,19.7,28.5,21.8,15.1,86,75,63,29.99,29.90,23,4,0,0.10
2014-11-30,58.1,53.2,44.4,47.5,45.2,39.0,81,74,67,30.04,29.92,16,2,0,0.10
2014-12-1,57.7,51.2,42.6,51.8,46.1,39.2,88,83,77,30.18,30.02,13,1,0,0.10
2014-12-2,43.1,37.4,35.4,40.1,34.7,32.5,90,90,88,30.22,30.04,8,0,0,0.55
2014-12-3,49.8,40.4,31.1,46.8,37.1,27.7,90,88,83,30.10,29.93,15,1,0,0.19
2014-12-4,42.0,35.9,30.0,36.2,31.9,27.2,89,85,74,30.16,30.07,4,0,0,0.15
2014-12-5,41.7,39.5,37.9,39.0,36.8,35.2,90,90,89,30.19,30.06,0,0,0,0.18
2014-12-6,49.8,44.2,39.0,47.0,41.2,35.5,91,89,84,30.08,29.81,14,1,0,0.33
2014-12-7,50.7,37.9,28.0,35.5,26.2,17.2,90,65,39,30.24,30.08,13,1,0,0.10
2014-12-8,33.8,32.3,31.2,29.2,24.8,13.7,89,74,47,30.22,29.96,7,0,0,0.00
2014-12-9,42.6,35.4,30.9,37.6,31.4,-1.8,90,85,23,29.97,29.76,12,2,0,0.10
2014-12-10,35.2,30.7,24.0,31.7,26.8,19.6,90,85,78,29.83,29.77,22,4,4,0.00
2014-12-11,34.3,28.7,22.2,20.4,18.6,16.3,85,67,50,29.86,29.76,16,4,0,0.06
2014-12-12,41.7,35.5,28.8,20.3,18.4,17.0,66,49,40,30.00,29.82,10,2,2,0.06
2014-12-13,36.6,30.8,27.5,29.5,23.5,19.0,86,74,58,29.99,29.92,12,2,0,0.06
2014-12-14,39.9,38.9,37.0,35.3,34.7,32.7,86,85,83,29.93,29.88,12,5,4,0.00
2014-12-15,53.2,43.3,37.2,42.9,36.3,32.3,90,77,63,29.90,29.81,6,0,0,0.00
2014-12-16,50.7,42.1,36.5,45.4,38.1,32.1,90,86,79,29.81,29.64,15,1,0,0.28
2014-12-17,40.3,35.8,28.2,36.3,30.1,22.8,88,80,68,29.90,29.80,18,3,15,0.00
2014-12-18,37.5,29.8,23.1,26.5,22.4,18.3,84,74,63,29.97,29.84,17,2,0,0.00
2014-12-19,35.7,27.7,21.9,26.3,21.2,17.1,84,76,64,30.00,29.89,24,5,0,0.00
2014-12-20,34.8,28.7,21.2,29.3,24.1,17.1,86,83,79,30.01,29.93,19,3,0,0.00
2014-12-21,47.4,37.5,31.2,38.0,29.6,27.1,89,74,56,30.04,29.95,8,0,0,0.00
2014-12-22,36.3,34.8,33.6,33.1,30.8,28.4,90,85,81,29.99,29.80,7,0,0,0.02
2014-12-23,49.2,43.5,35.7,46.4,40.7,33.1,90,90,89,29.83,29.73,8,0,0,0.35
2014-12-24,56.1,48.7,44.2,52.6,45.6,-24.0,90,89,84,29.75,29.42,15,0,0,0.41
2014-12-25,44.2,36.2,29.6,40.3,30.2,25.9,86,79,70,30.04,29.53,21,3,5,0.02
2014-12-26,49.4,36.9,26.6,37.5,29.9,23.6,90,76,57,30.12,29.99,16,1,0,0.02
2014-12-27,58.1,43.9,32.1,36.6,29.4,25.4,83,59,36,30.11,29.89,9,0,0,0.02
2014-12-28,48.9,45.8,40.6,43.8,39.0,28.1,89,79,48,29.91,29.81,10,0,0,0.06
2014-12-29,40.8,38.2,34.1,37.7,35.4,31.3,90,89,87,29.98,29.86,4,0,0,0.22
2014-12-30,39.5,34.1,31.6,34.8,29.5,18.5,90,84,48,30.11,29.95,11,1,0,0.02
2014-12-31,30.0,26.1,18.9,16.4,11.1,4.2,75,53,38,30.17,10.66,22,4,0,0.02
2015-1-1,37.0,28.5,20.4,22.6,17.1,11.2,69,62,55,30.02,29.90,22,4,0,0.00
2015-1-2,36.8,33.7,31.1,30.2,26.3,21.1,85,74,67,30.14,29.97,18,2,0,0.00